Kokomo, IN

6:43 AM EDT on April 29, 2017 (GMT -0400)
Kokomo Municipal

Weather History for KOKK - June, 2013

Change the Weather History Date:

Saturday, June 1, 2013

  Actual Average (KGUS) Record (KGUS)
Temperature  
Mean Temperature 68 °F -  
Max Temperature 73 °F 71 °F 89 °F (2014)
Min Temperature 62 °F 56 °F 42 °F (2003)
Cooling Degree Days 2    
Growing Degree Days 18 (Base 50)    
Moisture  
Dew Point 63 °F    
Average Humidity 82    
Maximum Humidity 94    
Minimum Humidity 69    
Precipitation  
Precipitation 0.75 in - - ()
Sea Level Pressure  
Sea Level Pressure 29.80 in    
Wind  
Wind Speed 14 mph (SSW)    
Max Wind Speed 25 mph    
Max Gust Speed 36 mph    
Visibility 10 miles    
Events Thunderstorm    
Averages and records for this station are not official NWS values.
T = Trace of Precipitation, MM = Missing Value Source: NWS Daily Summary

Daily Weather History Graph

Daily Weather History Graph

Search for Another Location

Airport or City:

Trip Planner

Search our weather history database for the weather conditions in past years. The results will help you decide how hot, cold, wet, or windy it might be!

Date:

Astronomy

Jun. 01, 2013 Rise Set
Actual Time 5:15 AM CDT 8:08 PM CDT
Civil Twilight 4:43 AM CDT 8:41 PM CDT
Nautical Twilight 4:02 AM CDT 9:22 PM CDT
Astronomical Twilight 3:14 AM CDT 10:10 PM CDT
Moon 1:12 AM CDT (6/1) 1:36 PM CDT (6/1)
Length of Visible Light 15h 58m
Length of Day
14h 53m
Last Quarter, 40% of the Moon is Illuminated
Jun 1
Last Quarter
Jun 8
New
Jun 16
First Quarter
Jun 23
Full
Jun 29
Last Quarter

Hourly Weather History & Observations

Time (CDT) Temp. Dew Point Humidity Pressure Visibility Wind Dir Wind Speed Gust Speed Precip Events Conditions
12:15 AM 71.6 °F 68.0 °F 88% 29.84 in 9.0 mi South 13.8 mph - 0.01 in Thunderstorm Thunderstorm
12:35 AM 71.6 °F 68.0 °F 88% 29.83 in 10.0 mi South 16.1 mph 20.7 mph 0.01 in   Overcast
12:55 AM 71.6 °F 69.8 °F 94% 29.83 in 10.0 mi South 19.6 mph 24.2 mph 0.01 in   Mostly Cloudy
1:15 AM 69.8 °F 62.6 °F 78% 29.88 in 5.0 mi West 24.2 mph 35.7 mph 0.10 in Thunderstorm Thunderstorm
1:35 AM 64.4 °F 62.6 °F 94% 29.87 in 10.0 mi SW 17.3 mph 28.8 mph 0.24 in Thunderstorm Thunderstorm
1:55 AM 64.4 °F 62.6 °F 94% 29.85 in 10.0 mi WSW 15.0 mph 19.6 mph 0.30 in Thunderstorm Thunderstorm
2:15 AM 64.4 °F 62.6 °F 94% 29.85 in 10.0 mi SW 13.8 mph - 0.01 in   Mostly Cloudy
2:35 AM 64.4 °F 62.6 °F 94% 29.84 in 10.0 mi SSW 11.5 mph - 0.03 in   Mostly Cloudy
2:55 AM 64.4 °F 62.6 °F 94% 29.84 in 10.0 mi SSW 9.2 mph - 0.07 in   Overcast
3:15 AM 64.4 °F 62.6 °F 94% 29.84 in 10.0 mi South 9.2 mph - 0.03 in   Overcast
3:35 AM 64.4 °F 62.6 °F 94% 29.85 in 10.0 mi SW 10.4 mph - 0.07 in   Overcast
3:55 AM 64.4 °F 62.6 °F 94% 29.84 in 10.0 mi Calm Calm - 0.18 in   Overcast
4:15 AM 64.4 °F 62.6 °F 94% 29.84 in 10.0 mi South 4.6 mph - 0.06 in   Overcast
4:35 AM 64.4 °F 62.6 °F 94% 29.85 in 10.0 mi South 8.1 mph - 0.07 in   Mostly Cloudy
4:55 AM 64.4 °F 62.6 °F 94% 29.84 in 10.0 mi SSE 8.1 mph - 0.10 in   Overcast
5:15 AM 64.4 °F 62.6 °F 94% 29.85 in 10.0 mi South 9.2 mph - 0.01 in   Mostly Cloudy
5:35 AM 64.4 °F 62.6 °F 94% 29.82 in 10.0 mi SSE 9.2 mph - 0.02 in   Partly Cloudy
5:55 AM 64.4 °F 62.6 °F 94% 29.80 in 10.0 mi SSE 11.5 mph - 0.03 in   Mostly Cloudy
6:15 AM 64.4 °F 62.6 °F 94% 29.77 in 10.0 mi SE 19.6 mph - 0.01 in   Mostly Cloudy
6:35 AM 64.4 °F 62.6 °F 94% 29.79 in 10.0 mi South 12.7 mph - 0.01 in   Partly Cloudy
6:55 AM 64.4 °F 62.6 °F 94% 29.79 in 10.0 mi SSE 10.4 mph 18.4 mph 0.01 in   Clear
7:15 AM 64.4 °F 62.6 °F 94% 29.80 in 10.0 mi South 12.7 mph - N/A   Clear
7:35 AM 64.4 °F 62.6 °F 94% 29.82 in 10.0 mi South 12.7 mph - N/A   Clear
7:55 AM 64.4 °F 62.6 °F 94% 29.81 in 10.0 mi South 13.8 mph 18.4 mph N/A   Clear
8:15 AM - - N/A% 29.79 in 10.0 mi South 13.8 mph - N/A   Clear
8:35 AM 66.2 °F 62.6 °F 88% 29.80 in 10.0 mi South 12.7 mph - N/A   Clear
8:55 AM 66.2 °F 62.6 °F 88% 29.81 in 10.0 mi South 12.7 mph - N/A   Clear
9:15 AM 68.0 °F 62.6 °F 83% 29.82 in 10.0 mi SSW 13.8 mph - N/A   Clear
9:35 AM 69.8 °F 64.4 °F 83% 29.83 in 10.0 mi SW 12.7 mph - N/A   Partly Cloudy
9:55 AM 69.8 °F 64.4 °F 83% 29.83 in 10.0 mi WSW 15.0 mph 19.6 mph N/A   Scattered Clouds
10:15 AM 71.6 °F 64.4 °F 78% 29.83 in 10.0 mi WSW 20.7 mph 24.2 mph N/A   Scattered Clouds
10:35 AM 71.6 °F 62.6 °F 73% 29.83 in 10.0 mi WSW 21.9 mph 32.2 mph N/A   Scattered Clouds
10:55 AM 71.6 °F 62.6 °F 73% 29.85 in 10.0 mi WSW 24.2 mph 28.8 mph N/A   Scattered Clouds
11:15 AM 73.4 °F 62.6 °F 69% 29.85 in 10.0 mi SW 23.0 mph 33.4 mph N/A   Mostly Cloudy
11:35 AM 71.6 °F 62.6 °F 73% 29.84 in 10.0 mi SW 19.6 mph 33.4 mph N/A   Overcast
11:55 AM 71.6 °F 62.6 °F 73% 29.83 in 10.0 mi SW 17.3 mph 31.1 mph N/A   Overcast
12:15 PM 71.6 °F 62.6 °F 73% 29.83 in 10.0 mi SW 15.0 mph 27.6 mph N/A   Overcast
12:35 PM 71.6 °F 60.8 °F 69% 29.82 in 10.0 mi SW 21.9 mph 31.1 mph N/A   Overcast
12:55 PM 73.4 °F 62.6 °F 69% 29.81 in 10.0 mi SW 15.0 mph 23.0 mph N/A   Mostly Cloudy
1:15 PM 71.6 °F 62.6 °F 73% 29.81 in 10.0 mi SW 15.0 mph - N/A   Mostly Cloudy
1:35 PM 71.6 °F 62.6 °F 73% 29.81 in 10.0 mi SW 13.8 mph 17.3 mph N/A   Mostly Cloudy
1:55 PM 71.6 °F 62.6 °F 73% 29.82 in 10.0 mi SW 10.4 mph 16.1 mph N/A   Mostly Cloudy
2:15 PM 71.6 °F 62.6 °F 73% 29.81 in 10.0 mi WSW 11.5 mph - N/A   Mostly Cloudy
2:35 PM 71.6 °F 62.6 °F 73% 29.82 in 10.0 mi SW 9.2 mph - N/A   Partly Cloudy
2:55 PM 71.6 °F 64.4 °F 78% 29.80 in 10.0 mi WSW 9.2 mph - N/A   Scattered Clouds
3:15 PM 71.6 °F 62.6 °F 73% 29.81 in 10.0 mi SW 10.4 mph - N/A   Mostly Cloudy
3:35 PM 71.6 °F 62.6 °F 73% 29.80 in 10.0 mi SW 12.7 mph - N/A   Overcast
3:55 PM 71.6 °F 62.6 °F 73% 29.80 in 10.0 mi SW 9.2 mph - N/A   Mostly Cloudy
4:15 PM 71.6 °F 62.6 °F 73% 29.80 in 10.0 mi SW 9.2 mph - N/A   Overcast
4:35 PM 71.6 °F 64.4 °F 78% 29.77 in 10.0 mi South 10.4 mph - N/A   Mostly Cloudy
4:55 PM 73.4 °F 64.4 °F 73% 29.78 in 10.0 mi SSW 12.7 mph - N/A   Partly Cloudy
5:15 PM 73.4 °F 64.4 °F 73% 29.77 in 10.0 mi SW 10.4 mph - N/A   Scattered Clouds
5:35 PM 73.4 °F 64.4 °F 73% 29.77 in 10.0 mi SSW 11.5 mph - N/A   Partly Cloudy
5:55 PM 73.4 °F 64.4 °F 73% 29.77 in 10.0 mi SSW 8.1 mph - N/A   Mostly Cloudy
6:15 PM 73.4 °F 64.4 °F 73% 29.75 in 10.0 mi SSW 5.8 mph - N/A   Mostly Cloudy
6:35 PM 73.4 °F 64.4 °F 73% 29.75 in 10.0 mi SW 9.2 mph - N/A   Mostly Cloudy
6:55 PM 73.4 °F 64.4 °F 73% 29.75 in 10.0 mi SW 10.4 mph - N/A   Mostly Cloudy
7:15 PM 73.4 °F 64.4 °F 73% 29.75 in 10.0 mi SW 16.1 mph 21.9 mph N/A   Overcast
7:35 PM 71.6 °F 62.6 °F 73% 29.75 in 10.0 mi SW 11.5 mph - N/A   Overcast
7:55 PM 71.6 °F 62.6 °F 73% 29.75 in 10.0 mi SW 13.8 mph - N/A   Mostly Cloudy
8:15 PM 71.6 °F 62.6 °F 73% 29.75 in 10.0 mi SW 13.8 mph - N/A   Mostly Cloudy
8:35 PM 69.8 °F 62.6 °F 78% 29.75 in 10.0 mi SW 15.0 mph - N/A   Scattered Clouds
8:55 PM 69.8 °F 62.6 °F 78% 29.75 in 10.0 mi SW 15.0 mph 19.6 mph N/A   Scattered Clouds
9:15 PM 69.8 °F 62.6 °F 78% 29.75 in 10.0 mi SW 13.8 mph 20.7 mph N/A   Overcast
9:35 PM 69.8 °F 62.6 °F 78% 29.76 in 10.0 mi SW 17.3 mph - N/A   Overcast
9:55 PM 69.8 °F 62.6 °F 78% 29.77 in 10.0 mi SW 15.0 mph 19.6 mph N/A   Overcast
10:15 PM 68.0 °F 62.6 °F 83% 29.77 in 10.0 mi SW 16.1 mph 23.0 mph N/A   Mostly Cloudy
10:35 PM 68.0 °F 62.6 °F 83% 29.77 in 10.0 mi SW 15.0 mph - N/A   Mostly Cloudy
10:55 PM 68.0 °F 62.6 °F 83% 29.77 in 10.0 mi SW 13.8 mph - N/A   Overcast
11:15 PM 68.0 °F 62.6 °F 83% 29.78 in 10.0 mi West 25.3 mph 28.8 mph N/A   Overcast
11:35 PM 62.6 °F 60.8 °F 94% 29.77 in 9.0 mi WSW 13.8 mph 23.0 mph 0.05 in   Mostly Cloudy
11:55 PM 62.6 °F 59.0 °F 88% 29.76 in 10.0 mi SSW 8.1 mph - 0.05 in   Mostly Cloudy